Location: La Brionne
(46.1728°N, 1.7849°E)
Time: 17:55:57
(UTC+00:00)

Cosmos 1544 Rocket - Pass Details

Date: 31 October 2021
Orbit: 603 x 632 km, 82.5° (Epoch: 27 November)

Event Time Altitude Azimuth Distance (km) Brightness Sun altitude
Rises 17:39:53 0° 205° (SSW) 2,911 7.5 -10.9°
Reaches altitude 10° 17:42:12 10° 212° (SSW) 2,007 6.8 -11.3°
Maximum altitude 17:46:27 43° 284° (WNW) 894 4.9 -12.0°
Drops below altitude 10° 17:50:42 10° 356° (N) 2,011 6.1 -12.7°
Sets 17:53:02 0° 3° (N) 2,918 6.9 -13.1°
